Location: Guayaquil
(2.1667°S, 79.9000°W)
Time: 02:34:26
(UTC-05:00)

AAUSAT CUBESAT 2 - Visible Passes

Search period start: 20 June 2018 00:00
Search period end: 30 June 2018 00:00
Orbit: 576 x 592 km, 97.5° (Epoch: 19 June)

Date Brightness Start Highest point End Pass type
(mag) Time Alt. Az. Time Alt. Az. Time Alt. Az.
20 Jun ? 19:52:31 20° SSW 19:55:07 47° WSW 19:59:02 10° NNW visible
21 Jun ? 19:58:48 18° SSW 20:01:21 37° WSW 20:05:08 10° NNW visible
22 Jun ? 20:05:05 16° SSW 20:07:36 30° WSW 20:11:11 10° NW visible
23 Jun ? 20:11:22 14° SSW 20:13:50 24° WSW 20:17:09 10° NW visible
24 Jun ? 18:42:38 10° ESE 18:44:54 14° E 18:47:10 10° NE visible
24 Jun ? 20:17:38 12° SW 20:20:04 20° WSW 20:23:03 10° NW visible
25 Jun ? 18:48:20 10° ESE 18:51:09 18° E 18:53:56 10° NE visible
25 Jun ? 20:23:55 11° SW 20:26:18 16° WSW 20:28:50 10° WNW visible
26 Jun ? 18:54:11 10° SE 18:57:23 22° E 19:00:34 10° NNE visible
26 Jun ? 20:30:39 10° SW 20:32:32 13° WSW 20:34:24 10° WNW visible
27 Jun ? 19:00:08 10° SE 19:03:37 27° E 19:07:06 10° NNE visible
27 Jun ? 20:38:13 10° WSW 20:38:45 10° WSW 20:39:18 10° W visible
28 Jun ? 19:06:19 11° SE 19:09:52 34° E 19:13:34 10° NNE visible
29 Jun ? 19:12:36 12° SSE 19:16:06 42° E 19:19:59 10° N visible
